RH
42 42 40 37 32 28 26 27 27 27 28 30 31 32 33 34 35 36 37 40 44 45 46 45 43 40 40 45 55 52 53 52 50 51 53 52 53 52 52 50 47 43 40
44 44 43 43 40 35 31 30 30 32 34 36 36 37 37 38 39 40 41 42 44 46 46 49 44 40 44 54 47 48 54 45 46 48 50 56 59 58 56 56 52 50 46
45 43 42 44 46 41 38 36 35 37 39 39 40 40 40 41 41 40 42 42 42 44 42 45 43 42 44 47 41 48 42 35 34 37 46 54 61 62 61 58 57 53 52
53 49 46 44 46 47 44 44 45 46 47 47 47 46 44 44 44 43 42 43 42 44 45 45 43 40 44 41 41 41 37 34 32 34 35 43 52 60 58 59 60 59 61
66 62 54 50 46 46 49 50 51 52 54 53 51 48 49 48 48 47 43 40 40 42 42 42 42 44 44 48 47 44 39 36 35 35 38 40 43 48 58 59 59 63 67
73 69 61 56 54 49 51 54 57 57 56 51 51 47 47 45 43 41 41 40 39 38 39 42 44 46 52 48 52 43 42 39 39 39 38 38 38 40 42 45 62 70 69
79 72 67 64 65 58 55 56 53 55 55 51 48 46 46 43 42 40 39 40 40 39 40 40 45 46 50 52 51 49 46 45 41 37 37 34 33 34 36 36 39 54 70
86 83 75 71 70 61 54 55 56 58 54 52 52 49 48 47 44 42 42 43 44 43 42 45 47 47 54 53 53 51 51 49 43 39 37 33 35 32 31 33 36 38 46
92 89 89 87 86 82 70 63 57 58 59 56 54 54 55 53 50 50 50 46 44 44 45 47 48 53 54 56 56 54 52 50 48 45 38 33 35 35 35 33 34 40 43
88 86 94 89 91 91 89 85 77 72 66 59 56 55 54 54 55 52 51 48 47 46 46 50 54 55 57 52 58 57 55 51 52 47 37 35 40 39 37 38 41 38 38
92 93 94 95 92 93 90 86 79 68 59 56 54 56 54 52 50 50 47 46 45 46 46 50 55 57 59 61 60 58 56 51 53 48 40 44 46 42 44 42 42 38 36
91 90 93 92 91 90 86 80 70 65 63 62 61 58 57 54 53 52 49 48 50 50 51 54 54 56 61 63 58 61 56 52 55 48 41 41 43 44 45 48 42 37 36
96 96 90 88 87 89 81 72 67 65 61 60 61 59 62 60 55 54 55 57 55 52 53 57 58 57 60 60 63 60 55 56 53 50 44 43 43 41 43 41 37 36 35
95 91 88 86 89 83 74 68 70 70 70 69 68 69 63 54 51 52 52 53 53 52 55 58 60 59 62 61 67 60 60 59 53 48 45 43 40 39 40 38 37 33 32
82 86 88 85 81 74 73 76 76 74 74 75 72 69 62 56 56 54 53 52 52 55 56 58 63 62 62 65 65 65 60 59 53 50 47 42 42 41 41 37 37 36 35
77 80 81 79 74 74 76 80 81 80 76 70 64 63 61 59 58 59 59 57 56 57 59 58 59 61 62 63 62 64 65 62 55 54 49 47 39 42 39 38 34 29 31
72 75 75 75 78 82 83 84 83 77 68 68 64 61 59 59 58 57 57 59 60 63 62 62 61 59 64 66 65 66 61 60 58 50 39 36 41 37 34 32 24 21 25
69 73 74 83 85 85 84 80 80 72 64 61 58 54 53 51 51 49 50 54 59 65 67 64 64 64 69 68 64 64 58 63 62 50 35 32 27 23 22 20 21 22 26
59 67 71 75 73 72 69 65 60 55 50 48 47 46 46 47 47 49 51 52 55 59 63 67 72 72 68 68 67 67 67 66 63 43 38 36 25 22 21 23 25 28 31
55 59 61 63 64 55 54 50 47 45 44 45 46 47 48 49 50 53 54 58 62 64 66 69 72 74 76 72 72 74 58 54 49 44 40 26 26 24 22 23 24 26 31
51 54 54 51 50 48 47 46 46 45 44 45 47 50 53 55 56 59 62 64 67 69 72 76 75 76 79 81 70 55 51 47 42 37 30 31 29 28 29 28 27 26 26
50 52 53 52 50 48 47 46 44 43 45 50 53 55 57 59 62 64 66 69 71 74 76 79 83 82 70 58 48 50 46 40 37 37 34 36 38 36 34 31 29 27 25
50 52 52 51 49 48 47 48 50 53 55 57 59 61 63 62 64 62 56 53 66 72 73 67 60 53 51 57 55 47 47 50 46 44 47 45 43 41 37 35 32 31 29
56 55 56 55 53 53 56 58 59 61 62 63 63 64 66 66 62 54 52 50 49 47 47 50 50 53 52 54 55 53 54 52 51 53 51 48 45 40 38 37 36 35 35
61 63 64 62 62 63 64 67 68 64 62 62 64 66 68 63 51 53 53 52 50 52 56 60 63 62 57 56 60 60 58 61 58 55 53 50 47 44 42 42 41 40 39
70 72 69 69 70 69 69 67 64 61 64 64 67 64 58 51 51 51 53 52 56 59 61 64 66 62 64 64 59 63 65 61 62 61 58 55 52 50 47 46 45 45 45